Wind_Speed
47 45 44 43 42 40 39 38 36 35 34 32 31 30 29 29 28 27 26 25 24 23 23 22 22 22 22 23 23 24 25 26 27 28 29 29 30 32 32 33 34 34 35
49 47 45 44 43 42 40 39 38 36 35 33 32 32 31 30 29 28 27 27 26 25 24 23 23 23 24 24 25 26 26 27 28 29 30 30 31 32 33 33 34 35 36
51 49 47 45 44 43 42 40 39 37 36 35 34 33 33 31 30 29 28 28 27 26 25 24 24 25 25 26 26 27 27 28 29 30 31 31 32 33 34 34 35 36 37
53 51 49 47 45 43 42 42 41 39 38 37 35 34 33 32 31 31 30 29 28 27 26 26 26 26 27 27 28 28 29 29 30 31 32 32 33 34 34 35 36 37 38
54 52 50 48 46 44 44 43 42 41 39 38 37 35 34 33 33 32 31 30 29 28 28 27 27 28 28 29 29 29 30 30 31 32 33 33 34 35 35 36 37 38 39
55 53 51 50 48 46 45 44 43 42 40 39 38 37 35 35 34 33 32 32 31 30 29 29 29 29 30 30 30 30 31 31 32 33 34 34 35 36 37 37 38 38 39
56 55 53 52 50 48 47 46 44 43 41 39 38 37 36 36 35 34 34 33 32 31 31 30 30 31 31 31 31 31 32 33 34 34 35 36 36 37 38 38 39 39 39
56 56 54 53 51 49 47 47 46 44 42 41 39 38 37 37 36 35 35 34 33 33 33 32 32 32 32 32 32 32 33 34 35 36 36 37 38 39 39 39 40 39 40
56 56 55 54 53 50 49 48 47 45 44 42 40 39 38 38 37 36 36 35 35 34 34 33 33 32 33 33 33 33 34 35 36 37 37 38 39 39 40 40 40 41 41
56 55 55 55 54 52 50 49 48 47 45 44 42 41 40 38 38 38 37 36 36 35 35 34 33 33 34 34 34 35 36 37 37 38 38 38 39 40 40 41 41 42 42
55 54 54 55 54 53 52 50 49 48 47 45 43 42 41 40 39 38 37 37 36 36 35 35 34 34 34 35 36 36 37 37 38 38 39 39 39 40 41 42 42 42 43
52 53 53 54 54 53 52 51 49 48 47 45 44 43 41 41 40 39 38 37 36 36 36 36 35 35 35 36 37 37 37 38 38 38 39 39 40 40 41 42 42 42 44
51 52 52 53 53 53 53 51 50 48 47 46 45 44 43 42 41 40 39 38 38 37 37 36 36 36 37 37 37 38 38 38 38 39 39 39 40 41 41 41 42 43 44
50 51 51 52 52 52 53 52 51 49 48 47 46 45 44 42 42 41 40 39 39 39 38 38 38 38 38 38 38 38 38 38 38 39 39 39 40 40 41 41 42 43 44
48 49 50 51 51 51 51 52 51 50 49 48 47 45 44 44 43 42 41 41 40 39 39 39 38 38 38 38 38 38 38 38 39 39 39 39 40 40 41 42 43 44 45
47 48 50 51 51 51 51 51 51 50 49 48 48 47 46 45 44 43 42 42 41 41 40 39 39 38 38 38 38 39 39 39 39 38 39 39 40 40 41 42 43 44 45
46 47 49 51 50 51 51 52 52 51 49 48 48 47 46 45 44 44 43 42 41 41 40 40 40 39 39 39 38 39 39 39 38 38 39 40 40 40 41 43 43 44 45
45 47 48 48 51 51 50 51 52 51 50 49 48 47 46 46 45 45 43 43 42 41 41 41 41 40 39 39 39 39 39 38 38 39 40 40 40 40 42 42 43 44 45
45 46 47 47 48 49 49 50 50 51 51 49 48 48 47 47 46 45 44 44 43 43 42 42 41 39 39 38 38 39 38 38 39 39 40 39 40 41 42 42 43 44 45
44 45 47 48 48 48 48 48 49 50 50 49 48 48 48 47 46 45 45 45 44 43 42 41 40 38 38 38 38 38 38 38 39 39 39 39 40 41 41 42 43 44 45
45 44 45 46 47 47 47 47 47 47 48 48 48 48 48 47 46 45 45 45 44 43 42 41 39 38 38 38 38 38 38 38 39 39 39 40 40 40 41 41 43 44 46
46 45 45 46 47 47 47 46 46 46 46 46 47 47 47 47 46 46 45 44 43 42 41 39 38 38 38 37 37 37 37 38 38 39 39 39 40 40 40 42 43 45 46
46 46 46 46 48 48 47 46 46 46 46 46 46 45 46 45 45 45 43 43 42 41 40 39 39 38 37 37 37 37 38 38 39 39 39 39 40 40 41 42 44 45 47
47 47 47 47 47 47 47 48 48 47 46 45 44 44 44 44 44 44 43 42 42 41 40 39 39 38 37 37 37 38 38 38 38 39 39 39 40 41 42 43 44 46 47
47 47 48 49 47 48 49 48 48 47 47 46 45 44 44 43 44 43 42 42 41 40 40 39 39 38 37 37 37 37 37 38 38 38 38 39 39 40 42 43 44 46 47
47 48 49 50 50 50 49 49 49 48 47 46 45 45 44 43 43 42 42 41 40 39 39 38 38 37 37 37 37 37 37 37 38 38 38 38 39 40 42 43 44 46 47
Wind_Direction
218 218 217 217 218 218 218 218 218 220 221 223 225 227 230 234 236 238 242 246 252 256 261 266 271 276 281 286 290 294 298 301 303 305 306 308 309 311 312 312 313 313 314
219 218 218 217 218 219 219 219 220 221 223 224 227 229 231 233 236 239 243 247 252 256 260 265 270 274 280 284 288 293 296 300 302 304 306 307 308 310 311 311 312 312 313
219 219 219 219 219 220 220 220 221 223 224 226 228 230 232 234 237 241 244 248 252 256 261 264 269 274 279 283 287 291 295 298 301 303 304 306 307 309 310 310 311 311 312
220 220 221 220 220 220 221 222 223 224 226 228 230 232 234 236 239 242 245 248 252 257 261 265 269 274 278 282 286 290 294 296 299 301 303 304 306 308 309 310 310 311 311
221 221 222 222 222 222 222 223 224 225 227 230 232 233 235 237 240 243 246 249 252 256 261 265 269 273 277 281 285 290 293 295 298 300 301 302 304 306 308 309 309 309 309
222 222 223 223 223 223 223 224 225 227 228 231 233 234 236 238 241 244 247 249 252 256 260 264 268 273 277 281 285 288 291 294 296 299 300 301 303 305 306 307 308 307 308
222 223 223 224 224 224 225 225 227 228 230 232 234 235 237 239 242 245 247 249 252 256 259 263 267 273 277 281 284 287 290 292 295 297 298 299 301 303 305 306 307 307 307
222 223 224 225 225 226 226 227 228 229 231 233 235 236 237 240 243 245 248 250 252 255 258 263 267 272 276 280 284 286 289 291 293 295 297 298 300 302 304 305 306 306 307
222 223 224 225 226 227 227 228 230 231 232 233 235 236 238 241 243 245 247 250 253 256 258 262 266 271 275 279 282 285 288 290 292 294 295 297 300 301 303 304 305 306 307
223 224 225 226 227 228 229 229 230 232 233 234 236 237 239 241 244 245 247 251 253 256 258 262 266 270 274 277 281 284 286 288 291 292 294 297 299 300 302 303 304 306 307
223 224 226 226 227 228 229 230 231 231 233 234 235 237 239 241 243 246 248 250 253 255 259 262 266 270 273 277 280 283 285 287 289 291 293 296 298 299 301 303 304 305 307
222 223 225 226 227 227 228 229 230 231 232 234 235 237 239 241 243 245 248 250 252 255 258 262 265 269 273 276 279 281 284 286 288 291 293 295 297 299 301 302 303 305 307
221 222 223 225 226 227 228 229 230 230 231 233 235 237 238 240 242 244 247 249 252 255 258 262 265 269 272 275 278 281 283 285 287 290 292 294 296 298 300 302 303 305 307
221 222 222 224 226 227 228 229 230 230 231 232 234 236 237 239 241 244 246 249 252 255 258 261 265 269 272 274 277 281 283 285 287 290 291 293 295 297 299 301 303 305 307
221 222 222 223 224 226 227 228 230 231 232 233 234 236 237 238 241 243 246 249 252 255 258 261 265 268 271 274 277 280 282 284 286 289 290 292 295 297 299 301 303 305 307
220 220 221 222 224 225 226 227 229 231 232 233 234 235 237 239 241 243 246 248 251 254 257 261 264 268 270 274 277 280 282 284 286 289 291 293 295 297 299 301 303 305 307
217 219 221 222 223 225 225 226 227 229 230 232 233 234 236 238 241 243 246 248 251 254 257 260 263 266 269 273 276 279 281 284 287 288 290 293 295 297 298 300 303 305 307
215 217 220 221 222 223 225 225 226 227 228 230 231 233 235 237 240 243 246 248 251 253 256 259 262 266 269 272 275 278 281 284 286 288 290 292 295 296 298 300 303 305 307
214 216 219 221 222 223 225 226 226 227 228 229 231 233 234 237 239 242 245 247 250 253 256 260 263 265 269 271 274 278 281 284 286 288 290 292 294 295 298 300 303 305 307
214 216 217 219 221 223 224 225 226 227 227 228 230 232 234 236 238 241 243 246 249 253 256 260 263 265 268 271 274 278 281 283 286 288 290 291 293 295 298 301 303 305 307
217 218 217 218 219 221 222 224 226 226 227 228 230 231 233 235 237 240 242 246 249 252 255 258 261 264 268 271 274 277 281 283 286 287 289 291 293 297 299 302 304 305 307
219 219 219 219 221 222 222 223 225 226 227 229 230 232 234 235 238 240 242 245 248 251 254 257 260 264 268 271 274 278 281 283 285 287 289 291 294 297 300 302 304 306 308
219 220 221 221 222 224 224 224 225 226 228 229 230 232 234 236 238 240 243 245 248 250 254 257 260 264 267 271 274 278 281 283 285 287 290 292 294 297 300 302 304 307 309
220 222 222 223 223 224 225 225 225 226 227 229 230 233 236 237 239 241 244 246 248 250 252 255 259 263 266 270 273 276 279 282 285 288 290 292 295 297 300 302 305 307 310
222 223 224 224 224 225 226 226 226 227 228 229 232 234 237 239 240 241 243 246 248 249 252 256 259 262 265 269 272 274 278 282 285 288 290 292 295 298 301 303 306 308 311
222 223 225 226 226 227 227 226 226 228 229 231 232 234 236 238 240 241 243 245 248 251 253 256 259 262 265 268 271 274 278 282 286 289 290 292 295 298 301 303 306 309 311
Height
5739 5745 5751 5757 5763 5769 5776 5781 5786 5791 5795 5799 5803 5807 5810 5813 5816 5818 5820 5822 5823 5824 5825 5825 5825 5824 5824 5823 5821 5820 5818 5816 5813 5810 5807 5804 5800 5797 5793 5788 5784 5780 5775
5729 5736 5743 5750 5756 5762 5769 5774 5780 5784 5789 5794 5797 5801 5804 5807 5809 5812 5814 5816 5817 5818 5819 5819 5819 5819 5818 5817 5816 5814 5812 5810 5808 5805 5802 5799 5796 5791 5787 5783 5778 5774 5769
5721 5728 5735 5742 5749 5755 5761 5767 5773 5778 5782 5787 5790 5794 5797 5800 5804 5806 5808 5810 5811 5813 5813 5814 5813 5813 5812 5811 5810 5808 5807 5804 5802 5799 5796 5793 5789 5785 5781 5777 5772 5767 5762
5712 5720 5727 5734 5741 5748 5754 5760 5765 5770 5775 5779 5783 5787 5791 5795 5798 5800 5802 5804 5805 5806 5807 5807 5807 5807 5806 5805 5804 5802 5800 5798 5796 5793 5789 5786 5783 5779 5775 5771 5766 5761 5756
5704 5712 5719 5726 5733 5740 5746 5752 5757 5762 5767 5772 5776 5781 5785 5788 5790 5793 5795 5797 5799 5800 5801 5801 5801 5800 5800 5799 5797 5796 5794 5792 5789 5786 5783 5780 5776 5772 5768 5764 5759 5754 5748
5695 5703 5710 5717 5724 5731 5737 5743 5748 5754 5759 5764 5769 5773 5777 5780 5783 5786 5788 5790 5792 5793 5794 5794 5794 5794 5793 5792 5791 5789 5787 5785 5782 5779 5776 5773 5769 5765 5761 5757 5752 5747 5742
5684 5693 5700 5708 5715 5722 5728 5734 5740 5746 5751 5756 5761 5766 5769 5772 5776 5778 5781 5783 5784 5786 5786 5787 5787 5787 5786 5785 5784 5782 5780 5778 5775 5772 5769 5765 5762 5758 5754 5749 5745 5740 5735
5674 5682 5690 5698 5706 5713 5720 5726 5732 5738 5743 5748 5753 5757 5761 5764 5768 5771 5773 5775 5777 5778 5779 5779 5779 5779 5779 5778 5777 5775 5773 5771 5768 5765 5762 5758 5754 5750 5746 5741 5737 5732 5728
5663 5672 5680 5688 5696 5703 5710 5717 5723 5729 5734 5740 5744 5749 5752 5756 5760 5762 5765 5767 5769 5770 5771 5772 5772 5772 5771 5770 5769 5768 5765 5763 5760 5757 5754 5750 5746 5742 5738 5733 5728 5724 5719
5654 5662 5670 5677 5685 5693 5701 5707 5713 5720 5725 5730 5735 5740 5744 5748 5751 5753 5756 5759 5761 5762 5763 5764 5764 5764 5763 5762 5761 5760 5758 5755 5752 5749 5746 5742 5738 5734 5729 5725 5720 5715 5710
5644 5651 5659 5667 5675 5682 5690 5697 5703 5709 5715 5721 5726 5730 5735 5739 5742 5745 5748 5750 5752 5753 5755 5755 5756 5756 5755 5754 5753 5752 5749 5747 5744 5741 5737 5734 5730 5726 5721 5717 5712 5706 5701
5632 5640 5648 5656 5663 5671 5679 5686 5693 5699 5706 5711 5716 5721 5725 5729 5733 5736 5739 5741 5743 5745 5746 5747 5747 5747 5747 5746 5745 5743 5741 5739 5736 5733 5729 5725 5721 5718 5713 5708 5703 5698 5692
5620 5629 5637 5644 5652 5660 5668 5675 5682 5689 5695 5701 5706 5711 5716 5720 5724 5727 5730 5732 5734 5736 5737 5738 5739 5738 5738 5737 5736 5734 5732 5730 5727 5724 5720 5717 5713 5709 5704 5700 5695 5689 5684
5610 5618 5626 5634 5642 5649 5657 5665 5672 5678 5684 5690 5696 5701 5706 5710 5714 5718 5720 5723 5725 5727 5728 5729 5730 5730 5729 5728 5727 5725 5724 5721 5718 5715 5712 5708 5704 5700 5695 5691 5686 5681 5675
5600 5608 5616 5623 5630 5638 5646 5653 5661 5667 5674 5680 5686 5691 5696 5700 5704 5707 5711 5713 5716 5717 5719 5720 5720 5720 5720 5719 5718 5717 5715 5712 5709 5706 5703 5699 5695 5691 5687 5682 5677 5672 5666
5590 5597 5605 5612 5620 5627 5635 5642 5650 5657 5663 5669 5675 5680 5685 5690 5694 5697 5701 5704 5706 5708 5709 5711 5711 5711 5711 5710 5709 5707 5705 5703 5700 5697 5694 5690 5686 5682 5678 5673 5668 5663 5657
5580 5587 5594 5602 5609 5617 5625 5632 5639 5645 5652 5658 5664 5670 5675 5679 5683 5687 5690 5693 5696 5698 5700 5701 5702 5702 5702 5701 5699 5697 5696 5693 5691 5688 5685 5681 5677 5673 5669 5664 5659 5653 5647
5570 5578 5585 5592 5599 5606 5614 5621 5627 5634 5641 5647 5653 5659 5664 5669 5673 5677 5680 5683 5686 5688 5690 5691 5692 5692 5692 5691 5690 5688 5686 5684 5682 5679 5676 5672 5668 5664 5660 5655 5650 5644 5638
5561 5568 5575 5582 5589 5596 5603 5610 5617 5624 5630 5636 5642 5648 5653 5658 5662 5666 5670 5673 5675 5677 5679 5681 5682 5682 5682 5681 5680 5678 5677 5675 5672 5670 5667 5663 5659 5655 5651 5646 5641 5635 5629
5551 5558 5565 5572 5579 5586 5593 5600 5606 5613 5619 5626 5632 5637 5642 5647 5652 5656 5659 5662 5664 5667 5669 5670 5672 5672 5672 5672 5670 5669 5667 5666 5663 5661 5657 5654 5650 5646 5641 5636 5631 5626 5619
5542 5549 5555 5562 5569 5576 5583 5589 5596 5603 5609 5614 5620 5626 5631 5636 5641 5645 5648 5651 5654 5656 5658 5660 5661 5662 5662 5661 5660 5659 5658 5656 5653 5651 5648 5644 5640 5636 5632 5627 5622 5616 5610
5532 5539 5546 5553 5559 5566 5573 5579 5586 5593 5598 5604 5609 5615 5620 5625 5630 5634 5637 5640 5643 5646 5648 5649 5651 5651 5652 5652 5651 5649 5648 5646 5644 5641 5638 5635 5631 5627 5622 5618 5612 5606 5600
5523 5530 5537 5543 5550 5556 5563 5569 5576 5582 5587 5593 5599 5604 5610 5614 5619 5623 5627 5630 5633 5635 5637 5639 5640 5641 5642 5642 5641 5640 5638 5636 5634 5632 5629 5625 5622 5618 5613 5608 5603 5597 5590
5513 5520 5527 5534 5540 5546 5553 5559 5565 5571 5577 5583 5589 5594 5599 5604 5608 5612 5616 5619 5622 5625 5627 5629 5630 5631 5632 5632 5631 5630 5628 5626 5624 5622 5619 5616 5612 5608 5604 5599 5593 5587 5581
5503 5509 5516 5523 5530 5536 5543 5549 5555 5561 5567 5573 5579 5584 5589 5594 5598 5602 5605 5609 5612 5614 5617 5619 5620 5621 5622 5622 5621 5620 5618 5617 5615 5612 5609 5606 5603 5599 5594 5589 5584 5578 5571
5492 5499 5505 5512 5519 5525 5532 5538 5544 5550 5557 5563 5569 5574 5579 5583 5587 5591 5595 5598 5601 5604 5606 5608 5609 5610 5611 5611 5610 5610 5608 5607 5605 5603 5600 5597 5593 5589 5585 5580 5574 5568 5561